Weather History for Windom, MN

Change the Weather History Date:

Sunday, June 9, 2013

  Actual Average Record
Temperature  
Mean Temperature 64 °F -  
Max Temperature 71 °F 78 °F 98 °F (1985)
Min Temperature 57 °F 55 °F 42 °F (1955)
Degree Days  
Heating Degree Days 1    
Growing Degree Days 14 (Base 50)    
Moisture  
Dew Point 60 °F    
Average Humidity 89    
Maximum Humidity 94    
Minimum Humidity 64    
Precipitation  
Precipitation 0.20 in - - ()
Sea Level Pressure  
Sea Level Pressure 29.72 in    
Wind  
Wind Speed 14 mph (East)    
Max Wind Speed 23 mph    
Max Gust Speed 29 mph    
Visibility 8 miles    
Events Rain    
Averages and records for this station are not official NWS values.
T = Trace of Precipitation, MM = Missing Value Source: NWS Daily Summary

Daily Weather History Graph

Daily Weather History Graph

Search for Another Location

Airport:

Trip Planner

Search our weather history database for the weather conditions in past years. The results will help you decide how hot, cold, wet, or windy it might be!

Date:

Astronomy

Jun. 09, 2013 Rise Set
Actual Time 5:37 AM CDT 9:01 PM CDT
Civil Twilight 5:01 AM CDT 9:37 PM CDT
Nautical Twilight 4:15 AM CDT 10:24 PM CDT
Astronomical Twilight 3:16 AM CDT 11:24 PM CDT
Moon 6:37 AM CDT (6/9) 9:46 PM CDT (6/9)
Length of Visible Light 16h 35m
Length of Day
15h 24m
New Moon, 1% of the Moon is Illuminated
Jun 9
New Moon
Jun 16
First Quarter
Jun 23
Full
Jun 29
Last Quarter
Jul 8
New

Hourly Weather History & Observations

Time (CDT) Temp. Dew Point Humidity Pressure Visibility Wind Dir Wind Speed Gust Speed Precip Events Conditions
12:13 AM 57.2 °F 55.4 °F 94% 29.78 in 7.0 mi East 17.3 mph 25.3 mph 0.03 in Rain Heavy Rain
12:32 AM 57.2 °F 55.4 °F 94% 29.77 in 7.0 mi East 16.1 mph 27.6 mph 0.06 in Rain Heavy Rain
12:53 AM 57.2 °F 55.4 °F 94% 29.76 in 7.0 mi East 20.7 mph 27.6 mph 0.06 in Rain Light Rain
1:13 AM 57.2 °F 55.4 °F 94% 29.76 in 7.0 mi East 23.0 mph 28.8 mph N/A Rain Light Rain
1:32 AM 57.2 °F 55.4 °F 94% 29.75 in 7.0 mi East 18.4 mph 24.2 mph N/A Rain Light Rain
1:53 AM 57.2 °F 55.4 °F 94% 29.73 in 7.0 mi East 17.3 mph 25.3 mph 0.01 in Rain Light Rain
2:13 AM 57.2 °F 55.4 °F 94% 29.72 in 5.0 mi East 19.6 mph 28.8 mph N/A Rain Light Rain
2:32 AM 57.2 °F 55.4 °F 94% 29.71 in 5.0 mi East 19.6 mph 25.3 mph 0.01 in Rain Light Rain
2:53 AM 57.2 °F 55.4 °F 94% 29.70 in 5.0 mi East 18.4 mph 27.6 mph 0.01 in Rain Rain
3:13 AM 57.2 °F 55.4 °F 94% 29.70 in 5.0 mi East 17.3 mph 24.2 mph 0.02 in Rain Light Rain
3:32 AM 57.2 °F 55.4 °F 94% 29.68 in 4.0 mi East 17.3 mph 24.2 mph 0.04 in Rain Light Rain
3:53 AM 57.2 °F 55.4 °F 94% 29.67 in 4.0 mi East 15.0 mph 23.0 mph 0.04 in Rain Rain
4:13 AM 59.0 °F 57.2 °F 94% 29.67 in 4.0 mi East 17.3 mph 23.0 mph 0.03 in Rain Heavy Rain
4:32 AM 59.0 °F 55.4 °F 88% 29.66 in 4.0 mi ESE 17.3 mph 23.0 mph 0.03 in Rain Light Rain
4:53 AM 59.0 °F 57.2 °F 94% 29.66 in 3.0 mi ESE 16.1 mph 20.7 mph 0.03 in Rain Light Rain
5:13 AM 59.0 °F 57.2 °F 94% 29.66 in 5.0 mi ESE 15.0 mph - N/A Rain Light Rain
5:32 AM 59.0 °F 57.2 °F 94% 29.66 in 5.0 mi East 13.8 mph 18.4 mph N/A   Overcast
5:53 AM 59.0 °F 57.2 °F 94% 29.65 in 4.0 mi East 15.0 mph 19.6 mph N/A   Overcast
6:13 AM 59.0 °F 57.2 °F 94% 29.65 in 2.0 mi East 15.0 mph - N/A Rain Rain
6:32 AM 60.8 °F 57.2 °F 88% 29.65 in 3.0 mi East 13.8 mph - 0.01 in Rain Heavy Rain
6:53 AM 60.8 °F 57.2 °F 88% 29.65 in 2.5 mi ESE 13.8 mph 18.4 mph 0.02 in Rain Light Rain
7:12 AM 60.8 °F 57.2 °F 88% 29.65 in 2.5 mi ESE 15.0 mph 20.7 mph N/A Rain Heavy Rain
7:32 AM 60.8 °F 59.0 °F 94% 29.65 in 5.0 mi ESE 15.0 mph 20.7 mph 0.03 in Rain Rain
7:53 AM 60.8 °F 59.0 °F 94% 29.65 in 7.0 mi SE 12.7 mph - 0.03 in Rain Light Rain
8:12 AM 60.8 °F 59.0 °F 94% 29.65 in 4.0 mi SE 12.7 mph 17.3 mph N/A   Overcast
8:32 AM 62.6 °F 59.0 °F 88% 29.66 in 10.0 mi SE 12.7 mph - N/A   Overcast
8:53 AM 62.6 °F 60.8 °F 94% 29.66 in 10.0 mi SE 13.8 mph - N/A   Overcast
9:12 AM 62.6 °F 60.8 °F 94% 29.66 in 5.0 mi SE 12.7 mph 18.4 mph N/A   Overcast
9:32 AM 62.6 °F 60.8 °F 94% 29.67 in 10.0 mi SE 12.7 mph - N/A   Overcast
9:53 AM 64.4 °F 60.8 °F 88% 29.67 in 10.0 mi SE 12.7 mph - N/A   Overcast
10:12 AM 64.4 °F 60.8 °F 88% 29.67 in 10.0 mi SE 12.7 mph 17.3 mph N/A   Overcast
10:33 AM 66.2 °F 60.8 °F 83% 29.67 in 10.0 mi SE 11.5 mph - N/A   Overcast
10:53 AM 66.2 °F 60.8 °F 83% 29.68 in 10.0 mi ESE 13.8 mph - N/A   Mostly Cloudy
11:12 AM 64.4 °F 60.8 °F 88% 29.68 in 7.0 mi ESE 15.0 mph - N/A   Mostly Cloudy
11:33 AM 66.2 °F 60.8 °F 83% 29.68 in 10.0 mi SE 10.4 mph 17.3 mph N/A   Mostly Cloudy
11:53 AM 66.2 °F 60.8 °F 83% 29.68 in 10.0 mi ESE 12.7 mph - N/A   Mostly Cloudy
12:12 PM 66.2 °F 60.8 °F 83% 29.69 in 10.0 mi SE 9.2 mph - N/A   Mostly Cloudy
12:33 PM 66.2 °F 60.8 °F 83% 29.69 in 10.0 mi SSE 11.5 mph - N/A   Mostly Cloudy
12:53 PM 68.0 °F 59.0 °F 73% 29.69 in 10.0 mi SE 9.2 mph - N/A   Scattered Clouds
1:12 PM 69.8 °F 60.8 °F 73% 29.69 in 10.0 mi SSE 10.4 mph 16.1 mph N/A   Scattered Clouds
1:33 PM 69.8 °F 60.8 °F 73% 29.69 in 10.0 mi ESE 6.9 mph - N/A   Scattered Clouds
1:53 PM 71.6 °F 59.0 °F 64% 29.69 in 10.0 mi SE 10.4 mph 16.1 mph N/A   Scattered Clouds
2:12 PM 69.8 °F 60.8 °F 73% 29.69 in 10.0 mi East 9.2 mph - N/A   Scattered Clouds
2:33 PM 66.2 °F 60.8 °F 83% 29.70 in 10.0 mi ENE 9.2 mph - N/A Rain Rain
2:53 PM 68.0 °F 62.6 °F 83% 29.70 in 10.0 mi ENE 11.5 mph - N/A   Mostly Cloudy
3:12 PM 66.2 °F 60.8 °F 83% 29.70 in 10.0 mi ESE 9.2 mph - N/A   Mostly Cloudy
3:33 PM 66.2 °F 60.8 °F 83% 29.71 in 7.0 mi SE 4.6 mph - N/A Rain Light Rain
3:53 PM 66.2 °F 62.6 °F 88% 29.71 in 10.0 mi Calm Calm - N/A Rain Light Rain
4:12 PM 66.2 °F 62.6 °F 88% 29.71 in 10.0 mi WNW 4.6 mph - N/A   Overcast
4:32 PM 68.0 °F 62.6 °F 83% 29.71 in 10.0 mi NNW 3.5 mph - N/A   Mostly Cloudy
4:53 PM 68.0 °F 62.6 °F 83% 29.72 in 10.0 mi NNE 5.8 mph - N/A   Mostly Cloudy
5:12 PM 66.2 °F 62.6 °F 88% 29.73 in 10.0 mi North 8.1 mph - N/A   Light Drizzle
5:32 PM 66.2 °F 62.6 °F 88% 29.73 in 10.0 mi NNE 10.4 mph - N/A   Scattered Clouds
5:53 PM 66.2 °F 62.6 °F 88% 29.74 in 10.0 mi North 6.9 mph - N/A   Mostly Cloudy
6:12 PM 68.0 °F 62.6 °F 83% 29.74 in 10.0 mi NNE 8.1 mph - N/A   Mostly Cloudy
6:32 PM 66.2 °F 62.6 °F 88% 29.74 in 10.0 mi North 10.4 mph - N/A   Mostly Cloudy
6:52 PM 66.2 °F 62.6 °F 88% 29.75 in 10.0 mi North 8.1 mph - N/A   Mostly Cloudy
7:12 PM 66.2 °F 62.6 °F 88% 29.76 in 10.0 mi NNE 5.8 mph - N/A   Scattered Clouds
7:32 PM 66.2 °F 62.6 °F 88% 29.76 in 10.0 mi NNE 6.9 mph - N/A   Mostly Cloudy
7:52 PM 66.2 °F 62.6 °F 88% 29.77 in 10.0 mi NNE 9.2 mph - N/A   Scattered Clouds
8:13 PM 64.4 °F 60.8 °F 88% 29.78 in 10.0 mi NNE 6.9 mph - N/A   Scattered Clouds
8:32 PM 64.4 °F 60.8 °F 88% 29.78 in 10.0 mi North 5.8 mph - N/A   Clear
8:52 PM 64.4 °F 62.6 °F 94% 29.79 in 10.0 mi North 6.9 mph - N/A   Scattered Clouds
9:13 PM 64.4 °F 62.6 °F 94% 29.79 in 10.0 mi North 6.9 mph - N/A Rain Rain
9:32 PM 64.4 °F 62.6 °F 94% 29.80 in 10.0 mi North 5.8 mph - N/A   Light Drizzle
9:52 PM 64.4 °F 62.6 °F 94% 29.81 in 10.0 mi North 5.8 mph - N/A   Overcast
10:13 PM 62.6 °F 60.8 °F 94% 29.82 in 4.0 mi NNW 11.5 mph - N/A   Overcast
10:33 PM 62.6 °F 60.8 °F 94% 29.82 in 4.0 mi NNW 12.7 mph 17.3 mph N/A   Overcast
10:52 PM 62.6 °F 60.8 °F 94% 29.82 in 4.0 mi North 11.5 mph - N/A   Mostly Cloudy
11:13 PM 62.6 °F 60.8 °F 94% 29.83 in 4.0 mi NNW 11.5 mph - N/A   Overcast
11:33 PM 62.6 °F 60.8 °F 94% 29.83 in 4.0 mi NNW 11.5 mph - N/A   Overcast
11:52 PM 62.6 °F 60.8 °F 94% 29.83 in 4.0 mi NNW 11.5 mph - N/A   Overcast